Location: Newark
(35.0033°N, 81.0878°W)
Time: 04:27:18
(UTC+00:00)

N. Korean satellite - Pass Details

Date: 06 August 2020
Orbit: 455 x 503 km, 97.2° (Epoch: 22 September)

Event Time Altitude Azimuth Distance (km) Brightness Sun altitude
Rises 09:56:26 0° 37° (NE) 2,510 11.5 -8.6°
Reaches altitude 10° 09:59:36 10° 69° (ENE) 1,639 11.0 -8.0°
Maximum altitude 10:01:04 12° 94° (E) 1,512 10.1 -7.8°
Drops below altitude 10° 10:02:32 10° 118° (ESE) 1,646 9.8 -7.5°
Sets 10:05:42 0° 150° (SSE) 2,532 10.3 -6.9°
